Weather History for Cancun, Mexico

Change the Weather History Date:

Thursday, December 6, 2012

  Actual Average Record
Temperature  
Mean Temperature 70 °F -  
Max Temperature 80 °F 82 °F 93 °F (2004)
Min Temperature 60 °F 66 °F 53 °F (2010)
Cooling Degree Days 5    
Growing Degree Days 20 (Base 50)    
Moisture  
Dew Point 62 °F    
Average Humidity 79    
Maximum Humidity 94    
Minimum Humidity 54    
Precipitation  
Precipitation 0.00 in - - ()
Sea Level Pressure  
Sea Level Pressure 29.95 in    
Wind  
Wind Speed 3 mph ()    
Max Wind Speed 8 mph    
Max Gust Speed -    
Visibility 7.0 miles    
Events      
Averages and records for this station are not official NWS values.
T = Trace of Precipitation, MM = Missing Value Source: Averaged Metar Reports

Daily Weather History Graph

Daily Weather History Graph

Search for Another Location

Airport:

Trip Planner

Search our weather history database for the weather conditions in past years. The results will help you decide how hot, cold, wet, or windy it might be!

Date:

Astronomy

Dec. 06, 2012 Rise Set
Actual Time 6:11 AM CST 5:05 PM CST
Civil Twilight 5:47 AM CST 5:30 PM CST
Nautical Twilight 5:20 AM CST 5:57 PM CST
Astronomical Twilight 4:52 AM CST 6:24 PM CST
Moon No Moon Rise 11:46 AM CST (12/6)
Length of Visible Light 11h 42m
Length of Day
10h 54m
Waning Gibbous, 49% of the Moon is Illuminated
Dec 6
Waning Gibbous
Dec 13
New
Dec 19
First Quarter
Dec 28
Full
Jan 4
Last Quarter

Hourly Weather History & Observations

Time (CST) Temp. Heat Index Dew Point Humidity Pressure Visibility Wind Dir Wind Speed Gust Speed Precip Events Conditions
12:46 AM 62.6 °F - 60.8 °F 94% 29.98 in 7.0 mi West 4.6 mph - N/A   Clear
1:45 AM 60.8 °F - 59.0 °F 94% 29.96 in 7.0 mi WNW 5.8 mph - N/A   Clear
2:45 AM 60.8 °F - 59.0 °F 94% 29.95 in 7.0 mi WNW 4.6 mph - N/A   Clear
3:46 AM 60.8 °F - 59.0 °F 94% 29.95 in 7.0 mi NW 5.8 mph - N/A   Clear
4:44 AM 60.8 °F - 59.0 °F 94% 29.96 in 7.0 mi WNW 4.6 mph - N/A   Clear
5:50 AM 60.8 °F - 59.0 °F 94% 29.97 in 7.0 mi NW 3.5 mph - N/A   Scattered Clouds
6:43 AM 60.8 °F - 59.0 °F 94% 29.98 in 7.0 mi NNW 4.6 mph - N/A   Scattered Clouds
7:48 AM 68.0 °F - 62.6 °F 83% 30.00 in 7.0 mi NNW 6.9 mph - N/A   Clear
8:47 AM 75.2 °F - 66.2 °F 73% 30.02 in 7.0 mi NW 4.6 mph - N/A   Clear
9:41 AM 78.8 °F - 62.6 °F 57% 30.00 in 7.0 mi Calm Calm - N/A   Clear
10:42 AM 80.6 °F 81.8 °F 62.6 °F 54% 29.98 in 7.0 mi NNE 2.3 mph - N/A   Scattered Clouds
11:48 AM 80.6 °F 81.8 °F 62.6 °F 54% 29.96 in 7.0 mi Calm Calm - N/A   Scattered Clouds
12:40 PM 78.8 °F - 62.6 °F 57% 29.93 in 7.0 mi ENE 6.9 mph - N/A   Mostly Cloudy
1:43 PM 77.0 °F - 62.6 °F 61% 29.91 in 7.0 mi ENE 5.8 mph - N/A   Scattered Clouds
2:46 PM 80.6 °F 82.3 °F 64.4 °F 58% 29.91 in 7.0 mi ENE 5.8 mph - N/A   Scattered Clouds
3:48 PM 78.8 °F - 62.6 °F 57% 29.90 in 7.0 mi East 8.1 mph - N/A   Partly Cloudy
4:48 PM 75.2 °F - 64.4 °F 69% 29.91 in 7.0 mi NE 4.6 mph - N/A   Partly Cloudy
5:40 PM 73.4 °F - 62.6 °F 69% 29.91 in 7.0 mi Calm Calm - N/A   Clear
6:43 PM 68.0 °F - 62.6 °F 83% 29.93 in 7.0 mi Calm Calm - N/A   Clear
7:45 PM 66.2 °F - 62.6 °F 88% 29.95 in 7.0 mi Calm Calm - N/A   Clear
8:44 PM 64.4 °F - 60.8 °F 88% 29.95 in 7.0 mi Calm Calm - N/A   Clear
9:49 PM 64.4 °F - 60.8 °F 88% 29.96 in 7.0 mi Calm Calm - N/A   Clear
10:47 PM 62.6 °F - 60.8 °F 94% 29.96 in 7.0 mi Calm Calm - N/A   Clear
11:46 PM 62.6 °F - 60.8 °F 94% 29.93 in 7.0 mi Calm Calm - N/A   Clear